FW7611 Weather Reports


Display with metric or nautical units.
time (UTC)temp
F
wind
direction
speed
MPH
gust
MPH
rain 1hr
in
rain 24hr
in
rain mn
in
humidity
%
barometer
mb
20220629063028 67 0 0.0 0.0 0.00 0.00 0.00 88 1024.6
20220629061521 67 0 0.0 0.0 0.00 0.00 0.00 87 1024.6
20220629060029 67 0 0.0 0.0 0.00 0.00 0.00 87 1024.6
20220629054526 67 0 0.0 0.0 0.00 0.00 0.00 87 1024.6
20220629053025 67 0 0.0 0.0 0.00 0.00 0.00 85 1024.6
20220629051533 67 0 0.0 0.0 0.00 0.00 0.00 85 1024.6
20220629050026 67 0 0.0 0.0 0.00 0.00 0.00 85 1024.4
20220629044522 67 0 0.0 0.0 0.00 0.00 0.00 85 1024.4
20220629043019 67 0 0.0 0.0 0.00 0.00 0.00 84 1024.3
20220629041523 68 0 0.0 0.0 0.00 0.00 0.00 83 1024.3
20220629040022 68 0 0.0 0.0 0.00 0.00 0.00 84 1024.3
20220629034520 68 0 0.0 0.0 0.00 0.00 0.00 83 1024.3
20220629033024 68 0 0.0 0.0 0.00 0.00 0.00 81 1024.3
20220629031534 68 0 0.0 0.0 0.00 0.00 0.00 81 1024.3
20220629030036 69 0 0.0 0.0 0.00 0.00 0.00 80 1024.2
20220629024521 69 0 0.0 0.0 0.00 0.00 0.00 79 1024.2
20220629023025 70 0 0.0 0.0 0.00 0.00 0.00 78 1024.2
20220629021532 70 0 0.0 0.0 0.00 0.00 0.00 76 1024.0
20220629020022 71 0 0.0 0.0 0.00 0.00 0.00 75 1024.0
20220629014528 71 0 0.0 0.0 0.00 0.00 0.00 73 1024.0
20220629013026 72 0 0.0 0.0 0.00 0.00 0.00 71 1024.1
20220629011521 73 0 0.0 0.0 0.00 0.00 0.00 70 1023.9
20220629010025 74 0 0.0 0.0 0.00 0.00 0.00 70 1024.0
20220629004518 74 0 0.0 0.0 0.00 0.00 0.00 67 1023.7
20220629003027 75 0 0.0 0.0 0.00 0.00 0.00 67 1023.6
20220629001524 76 0 0.0 0.0 0.00 0.00 0.00 65 1023.7
20220629000020 76 0 0.0 0.0 0.00 0.00 0.00 62 1023.7
20220628234522 77 0 0.0 0.0 0.00 0.00 0.00 60 1023.5
20220628233026 77 0 0.0 0.0 0.00 0.00 0.00 60 1023.2
20220628231525 78 0 0.0 1.0 0.00 0.00 0.00 58 1023.3
20220628230022 78 0 0.0 0.0 0.00 0.00 0.00 58 1023.3
20220628224526 79 0 0.0 3.0 0.00 0.00 0.00 56 1023.1
20220628223023 79 0 0.0 1.0 0.00 0.00 0.00 56 1022.9
20220628221520 79 0 0.0 3.0 0.00 0.00 0.00 56 1022.9
20220628220024 80 0 0.0 1.0 0.00 0.00 0.00 58 1022.7
20220628214522 80 0 0.0 2.0 0.00 0.00 0.00 55 1022.8
20220628213020 80 0 0.0 0.0 0.00 0.00 0.00 53 1022.8
20220628211524 80 0 0.0 2.0 0.00 0.00 0.00 54 1022.8
20220628210027 80 348 0.0 2.0 0.00 0.00 0.00 52 1022.9
20220628204523 81 0 0.0 0.0 0.00 0.00 0.00 51 1022.9
20220628203018 81 0 0.0 2.0 0.00 0.00 0.00 51 1023.1
20220628201532 82 0 0.0 2.0 0.00 0.00 0.00 51 1023.4
20220628200018 82 0 0.0 3.0 0.00 0.00 0.00 51 1023.5
20220628194523 82 153 0.0 4.0 0.00 0.00 0.00 50 1023.6
20220628193024 82 192 0.0 4.0 0.00 0.00 0.00 51 1023.6
20220628191532 82 0 0.0 8.0 0.00 0.00 0.00 48 1023.7
20220628190018 82 210 1.0 5.0 0.00 0.00 0.00 51 1023.7
20220628184517 82 0 0.0 3.0 0.00 0.00 0.00 51 1023.9
20220628183017 82 0 0.0 2.0 0.00 0.00 0.00 50 1024.0
20220628181531 82 0 0.0 3.0 0.00 0.00 0.00 49 1024.2
20220628180022 81 0 0.0 1.0 0.00 0.00 0.00 48 1024.4
20220628174521 82 0 0.0 6.0 0.00 0.46 0.00 49 1024.5
20220628173022 81 0 0.0 3.0 0.00 0.46 0.00 50 1024.6
20220628171522 80 67 0.0 3.0 0.00 0.46 0.00 51 1024.7
20220628170113 79 0 0.0 6.0 0.00 0.46 0.00 53 1024.8
20220628164532 79 0 0.0 4.0 0.00 0.46 0.00 51 1024.9
20220628163021 79 0 0.0 4.0 0.00 0.46 0.00 53 1025.0
20220628161522 78 0 0.0 3.0 0.00 0.46 0.00 52 1024.9
20220628160020 78 0 0.0 9.0 0.00 0.46 0.00 52 1024.9
20220628154521 77 344 1.0 5.0 0.00 0.46 0.00 54 1024.9
20220628153038 76 0 1.0 7.0 0.00 0.46 0.00 55 1024.9
20220628151533 75 0 0.0 6.0 0.00 0.46 0.00 58 1025.1
20220628150017 74 0 0.0 4.0 0.00 0.46 0.00 58 1024.9
20220628144519 73 77 0.0 4.0 0.00 0.46 0.00 60 1024.9
20220628143019 72 0 0.0 5.0 0.00 0.46 0.00 61 1024.8
20220628141517 71 0 0.0 3.0 0.00 0.46 0.00 62 1024.6
20220628140022 70 0 0.0 6.0 0.00 0.46 0.00 63 1024.6
20220628134529 69 0 0.0 5.0 0.00 0.46 0.00 65 1024.4
20220628133032 68 0 0.0 3.0 0.00 0.46 0.00 71 1024.3
20220628131530 67 0 0.0 2.0 0.00 0.46 0.00 75 1024.4
20220628130026 66 0 0.0 3.0 0.00 0.46 0.00 79 1024.3
20220628124525 65 0 0.0 3.0 0.00 0.46 0.00 82 1024.3
20220628123024 63 0 0.0 3.0 0.00 0.46 0.00 84 1024.2
20220628121523 62 269 0.0 4.0 0.00 0.46 0.00 87 1023.9
20220628120023 62 0 0.0 0.0 0.00 0.46 0.00 89 1023.7
20220628114522 61 0 0.0 0.0 0.00 0.46 0.00 89 1023.5
20220628113024 61 0 0.0 0.0 0.00 0.46 0.00 88 1023.4
20220628111523 61 0 0.0 0.0 0.00 0.46 0.00 87 1023.1
20220628110025 61 0 0.0 0.0 0.00 0.46 0.00 87 1023.1
20220628104523 61 0 0.0 0.0 0.00 0.46 0.00 87 1022.8
20220628103026 61 0 0.0 0.0 0.00 0.46 0.00 85 1022.6
20220628101531 61 0 0.0 0.0 0.00 0.46 0.00 85 1022.7
20220628100023 62 0 0.0 0.0 0.00 0.46 0.00 84 1022.6
20220628094525 62 0 0.0 0.0 0.00 0.46 0.00 84 1022.5
20220628093024 62 0 0.0 0.0 0.00 0.46 0.00 83 1022.3
20220628091524 62 0 0.0 0.0 0.00 0.46 0.00 83 1022.2
20220628090021 62 0 0.0 0.0 0.00 0.46 0.00 83 1022.0
20220628084530 62 0 0.0 1.0 0.00 0.46 0.00 82 1022.0
20220628083028 63 0 0.0 0.0 0.00 0.46 0.00 82 1021.9
20220628081530 63 0 0.0 0.0 0.00 0.46 0.00 83 1021.9
20220628080027 63 0 0.0 0.0 0.00 0.46 0.00 84 1021.7
20220628074537 63 0 0.0 0.0 0.00 0.46 0.00 83 1021.7
20220628073028 64 0 0.0 0.0 0.00 0.46 0.00 82 1021.7
20220628071526 64 0 0.0 0.0 0.00 0.46 0.00 82 1021.5
20220628070030 64 0 0.0 0.0 0.00 0.46 0.00 81 1021.5
20220628064524 64 0 0.0 0.0 0.00 0.46 0.00 81 1021.5